User: anonymous   Login
Location: *
(44.1392°N, 4.8079°E)
Time: 03:03:02
(UTC+00:00)
Language:

Nadezhda 4 Rocket - Orbit

View from above orbital plane
View from above orbital plane
View from above satellite
View from above satellite

Ground track
Ground track

The orbit data is extracted from the following two-line orbital elements,

1 23180U 94041B   21270.59670572  .00000090  00000-0  74142-4 0  9996
2 23180  82.9490 207.6180 0029304 158.0931  14.4843 13.78016971367808
Epoch (UTC): 27 September 2021 14:19:15
Eccentricity: 0.0029304
inclination: 82.9490°
perigee height: 949 km
apogee height: 992 km
right ascension of ascending node: 207.6180°
argument of perigee: 158.0931°
revolutions per day: 13.78016971
mean anomaly at epoch: 14.4843°
orbit number at epoch: 36780

The dashed part of the orbit path shows where the satellite is in the earth's shadow,  

DLR